Location: Breungeshain
(50.5000°N, 9.2000°E)
Time: 05:14:51
(UTC+00:00)

ISS - Pass Details

Date: 17 May 2018
Orbit: 402 x 407 km, 51.6° (Epoch: 21 May)

Event Time Altitude Azimuth Distance (km) Brightness Sun altitude
Exits shadow 00:39:15 34° 272° (W) 693 -2.9 -18.0°
Maximum altitude 00:40:32 76° 352° (N) 420 -3.8 -18.0°
Drops below altitude 10° 00:43:49 10° 79° (ENE) 1,459 -0.6 -17.8°
Sets 00:45:54 0° 81° (E) 2,319 0.5 -17.7°
